sat.trackr.live / text

‹ back to catalog

STARLINK-32182

NORAD 60319 · 2024-133U

PAYLOAD ACTIVE UNKNOWN

§ Identity

Operator
Country
US
Launch date
2024-07-28
Launch site
AFWTR
Launch vehicle
Mass (kg)
RCS (m²)

Purposes: comms

External: N2YO · Heavens-Above · Gunter

§ Orbital elements

Epoch: 2026-09-21T22:22:09.742944Z

Period
93.85 min
Inclination
53.1599°
Eccentricity
0.0001075
Mean motion
15.34389295 rev/d
Perigee alt
462.0 km
Apogee alt
463.5 km
Semi-major
6,840.9 km
B*
2.3755e-5
RAAN
102.8700°
Arg perigee
93.7442°
Mean anomaly
266.3683°
Rev number
12,172

§ Raw data

STARLINK-321821 60319U 24133U   26264.93205721  .00000426  00000+0  23755-4 0  99982 60319  53.1599 102.8700 0001075  93.7442 266.3683 15.34389295121729

JSON: /api/v1/satellites/60319 · /tle

For live sub-satellite position, see the globe view (requires WebGL).

§ Visibility from observer

Set your observer location to see the next 7 days of passes ≥ 10°. The values pass through the URL so the page stays shareable.

No JS? Fill the form by hand. The geolocation button needs JavaScript.